Track STARLINK-1810 now! 10-day predictions STARLINK-1810 is classified as:
1 46709U 20073AR 22177.48957252 .00000160 00000-0 29642-4 0 9993 2 46709 53.0541 207.0085 0001679 62.2875 297.8284 15.06397723 93107